Erzincan, Turkey

9:44 AM +03 on October 22, 2017 (GMT +0300)
Erzincan

Weather History for LTCD - November, 2012

Change the Weather History Date:

Thursday, November 8, 2012

  Actual Average Record
Temperature  
Mean Temperature 54 °F -  
Max Temperature 68 °F 49 °F - ()
Min Temperature 39 °F 31 °F - ()
Degree Days  
Heating Degree Days 12    
Growing Degree Days 4 (Base 50)    
Moisture  
Dew Point 42 °F    
Average Humidity 63    
Maximum Humidity 93    
Minimum Humidity 22    
Precipitation  
Precipitation 0.02 in 0.05 in - ()
Sea Level Pressure  
Sea Level Pressure 30.00 in    
Wind  
Wind Speed 3 mph ()    
Max Wind Speed 13 mph    
Max Gust Speed -    
Visibility 6.2 miles    
Events Rain    
T = Trace of Precipitation, MM = Missing Value Source: Averaged Metar Reports

Daily Weather History Graph

Daily Weather History Graph

Search for Another Location

Airport or City:

Trip Planner

Search our weather history database for the weather conditions in past years. The results will help you decide how hot, cold, wet, or windy it might be!

Date:

Astronomy

Nov. 08, 2012 Rise Set
Actual Time 5:58 AM EET 4:12 PM EET
Civil Twilight 5:30 AM EET 4:40 PM EET
Nautical Twilight 4:58 AM EET 5:12 PM EET
Astronomical Twilight 4:26 AM EET 5:44 PM EET
Moon No Moon Rise 12:41 PM EET (11/8)
Length of Visible Light 11h 10m
Length of Day
10h 13m
Waning Crescent, 36% of the Moon is Illuminated
Nov 8
Waning Crescent
Nov 14
New
Nov 20
First Quarter
Nov 28
Full
Dec 6
Last Quarter

Hourly Weather History & Observations

Time (EET) Temp. Dew Point Humidity Pressure Visibility Wind Dir Wind Speed Gust Speed Precip Events Conditions
12:50 AM 48.2 °F 41.0 °F 76% 30.04 in 6.2 mi NNW 4.6 mph - N/A   Mostly Cloudy
1:50 AM 46.4 °F 41.0 °F 81% 30.04 in 6.2 mi Calm Calm - N/A   Mostly Cloudy
2:00 AM 46 °F 41 °F 77%  in 6 mi Calm Calm - -   Partly Cloudy
2:50 AM 44.6 °F 41.0 °F 87% 30.01 in 6.2 mi NNE 1.2 mph - N/A   Mostly Cloudy
3:50 AM 42.8 °F 39.2 °F 87% 30.04 in 6.2 mi West 1.2 mph - N/A   Mostly Cloudy
4:50 AM 44.6 °F 41.0 °F 87% 30.04 in 6.2 mi Calm Calm - N/A   Scattered Clouds
5:50 AM 42.8 °F 41.0 °F 93% 30.04 in 6.2 mi East 1.2 mph - N/A   Mostly Cloudy
6:50 AM 42.8 °F 41.0 °F 93% 30.04 in 6.2 mi Calm Calm - N/A   Mostly Cloudy
7:50 AM 50.0 °F 42.8 °F 76% 30.04 in 6.2 mi Variable 2.3 mph - N/A   Scattered Clouds
8:00 AM 50 °F 43 °F 70%  in 6 mi WSW 2.3 mph - -   Partly Cloudy
8:50 AM 59.0 °F 42.8 °F 55% 30.01 in 6.2 mi Calm Calm - N/A   Scattered Clouds
9:50 AM 62.6 °F 42.8 °F 48% 30.01 in 6.2 mi Variable 1.2 mph - N/A   Scattered Clouds
10:50 AM 66.2 °F 42.8 °F 43% 29.98 in 6.2 mi Variable 1.2 mph - N/A   Scattered Clouds
11:50 AM 66.2 °F 37.4 °F 35% 29.98 in 6.2 mi SE 10.4 mph - N/A   Mostly Cloudy
12:50 PM 68.0 °F 37.4 °F 33% 29.95 in 6.2 mi Variable 2.3 mph - N/A   Mostly Cloudy
1:50 PM 68.0 °F 37.4 °F 33% 29.95 in 6.2 mi Variable 2.3 mph - N/A   Mostly Cloudy
2:00 PM 67 °F 37 °F 22%  in 6 mi ENE 2.3 mph - -   Partly Cloudy
2:50 PM 64.4 °F 37.4 °F 37% 29.95 in 6.2 mi East 4.6 mph - N/A   Mostly Cloudy
3:50 PM 62.6 °F 39.2 °F 42% 29.95 in 6.2 mi Variable 4.6 mph - N/A   Mostly Cloudy
4:50 PM 62.6 °F 39.2 °F 42% 29.95 in 6.2 mi NE 4.6 mph - N/A   Mostly Cloudy
5:50 PM 59.0 °F 44.6 °F 59% 29.98 in 6.2 mi SE 12.7 mph - N/A Rain Light Rain Showers
6:50 PM 57.2 °F 46.4 °F 67% 29.98 in 6.2 mi ESE 11.5 mph - N/A Rain Light Rain Showers
7:50 PM 55.4 °F 48.2 °F 77% 30.01 in 6.2 mi ENE 3.5 mph - N/A Rain Light Rain Showers
8:00 PM 55 °F 48 °F 71%  in 6 mi ENE 3.5 mph - - Rain Light Rain Showers
8:50 PM 55.4 °F 46.4 °F 72% 29.98 in 6.2 mi SSE 4.6 mph - N/A   Mostly Cloudy
9:50 PM 55.4 °F 46.4 °F 72% 29.98 in 6.2 mi SE 10.4 mph - N/A   Mostly Cloudy
10:50 PM 57.2 °F 44.6 °F 63% 29.98 in 6.2 mi SE 11.5 mph - N/A   Mostly Cloudy
11:50 PM 57.2 °F 44.6 °F 63% 29.98 in 6.2 mi SSE 8.1 mph - N/A   Mostly Cloudy